TimeEDT,TemperatureF,Dew PointF,Humidity,Sea Level PressureIn,VisibilityMPH,Wind Direction,Wind SpeedMPH,Gust SpeedMPH,PrecipitationIn,Events,Conditions,WindDirDegrees,DateUTC
12:53 AM,84.0,75.0,74,30.08,10.0,East,17.3,23.0,N/A,,Scattered Clouds,100,2013-08-11 04:53:00
1:02 AM,84.2,75.2,74,30.08,10.0,ESE,15.0,23.0,0.00,,Mostly Cloudy,110,2013-08-11 05:02:00
1:40 AM,84.2,75.2,74,30.07,10.0,East,12.7,-,0.00,,Scattered Clouds,100,2013-08-11 05:40:00
1:53 AM,84.0,75.0,74,30.07,10.0,East,11.5,-,0.00,,Partly Cloudy,90,2013-08-11 05:53:00
2:53 AM,82.9,75.9,79,30.05,10.0,East,18.4,23.0,N/A,,Clear,100,2013-08-11 06:53:00
3:53 AM,82.9,75.9,79,30.06,10.0,East,12.7,-,N/A,,Clear,90,2013-08-11 07:53:00
4:53 AM,82.9,75.9,79,30.05,10.0,East,10.4,-,N/A,,Partly Cloudy,90,2013-08-11 08:53:00
5:53 AM,82.9,75.9,79,30.06,10.0,East,12.7,20.7,N/A,,Mostly Cloudy,80,2013-08-11 09:53:00
6:53 AM,82.9,75.9,79,30.07,10.0,East,11.5,21.9,N/A,,Partly Cloudy,90,2013-08-11 10:53:00
7:53 AM,82.9,75.9,79,30.08,10.0,East,10.4,-,N/A,,Partly Cloudy,90,2013-08-11 11:53:00
8:53 AM,84.9,77.0,77,30.09,10.0,East,10.4,-,N/A,,Mostly Cloudy,90,2013-08-11 12:53:00
9:53 AM,84.9,75.9,74,30.11,10.0,East,15.0,20.7,N/A,,Mostly Cloudy,90,2013-08-11 13:53:00
10:53 AM,87.1,77.0,72,30.11,10.0,East,16.1,21.9,0.00,,Partly Cloudy,100,2013-08-11 14:53:00
11:53 AM,87.1,78.1,74,30.11,10.0,East,18.4,23.0,N/A,,Clear,100,2013-08-11 15:53:00
12:53 PM,88.0,78.1,72,30.11,10.0,East,13.8,21.9,N/A,,Partly Cloudy,100,2013-08-11 16:53:00
1:53 PM,88.0,77.0,70,30.10,10.0,East,17.3,-,N/A,,Clear,100,2013-08-11 17:53:00
2:53 PM,88.0,77.0,70,30.08,10.0,East,17.3,-,N/A,,Partly Cloudy,100,2013-08-11 18:53:00
3:53 PM,88.0,77.0,70,30.07,10.0,East,17.3,23.0,N/A,,Clear,100,2013-08-11 19:53:00
4:53 PM,87.1,75.9,69,30.06,10.0,East,17.3,-,N/A,,Partly Cloudy,100,2013-08-11 20:53:00
5:53 PM,87.1,75.9,69,30.04,10.0,East,16.1,23.0,N/A,,Clear,100,2013-08-11 21:53:00
6:53 PM,86.0,75.9,72,30.03,10.0,East,15.0,-,N/A,,Partly Cloudy,100,2013-08-11 22:53:00
7:53 PM,84.0,75.9,76,30.04,10.0,East,13.8,21.9,N/A,,Partly Cloudy,90,2013-08-11 23:53:00
8:53 PM,84.0,75.9,76,30.06,10.0,East,12.7,19.6,N/A,,Partly Cloudy,90,2013-08-12 00:53:00
9:53 PM,84.0,75.9,76,30.09,10.0,East,10.4,-,N/A,,Clear,80,2013-08-12 01:53:00
10:53 PM,82.9,75.9,79,30.10,10.0,ENE,8.1,-,N/A,,Partly Cloudy,70,2013-08-12 02:53:00
11:53 PM,82.9,75.9,79,30.09,10.0,East,6.9,-,N/A,,Clear,80,2013-08-12 03:53:00